Lander, WY

8:07 PM MDT on September 23, 2017 (GMT -0600)
Hunt

Weather History for KLND - February, 2014

Change the Weather History Date:

Thursday, February 13, 2014

  Actual Average Record
Temperature  
Mean Temperature 44 °F 24 °F  
Max Temperature 53 °F 36 °F 61 °F (2015)
Min Temperature 34 °F 13 °F -28 °F (1949)
Degree Days  
Heating Degree Days 21 41  
Month to date heating degree days 664 545  
Since 1 July heating degree days 5180 5135  
Cooling Degree Days 0 0  
Month to date cooling degree days 0 0  
Year to date cooling degree days 0 0  
Moisture  
Dew Point 22 °F    
Average Humidity 50    
Maximum Humidity 70    
Minimum Humidity 29    
Precipitation  
Precipitation 0.00 in 0.02 in 0.70 in (1893)
Month to date precipitation 0.07 0.23  
Year to date precipitation 0.68 0.64  
Snow  
Snow 0.00 in 0.40 in - ()
Month to date snowfall 1.4 4.4  
Since 1 July snowfall 52.9 47.7  
Snow Depth T in    
Sea Level Pressure  
Sea Level Pressure 29.76 in    
Wind  
Wind Speed 13 mph (WNW)    
Max Wind Speed 35 mph    
Max Gust Speed 45 mph    
Visibility 10 miles    
Events      
T = Trace of Precipitation, MM = Missing Value Source: NWS Daily Summary

Daily Weather History Graph

Daily Weather History Graph

Search for Another Location

Airport or City:

Trip Planner

Search our weather history database for the weather conditions in past years. The results will help you decide how hot, cold, wet, or windy it might be!

Date:

Astronomy

Feb. 13, 2014 Rise Set
Actual Time 7:14 AM MST 5:44 PM MST
Civil Twilight 6:45 AM MST 6:13 PM MST
Nautical Twilight 6:12 AM MST 6:46 PM MST
Astronomical Twilight 5:39 AM MST 7:19 PM MST
Moon 4:55 PM MST (2/13) 6:10 AM MST (2/13)
Length of Visible Light 11h 27m
Length of Day
10h 29m
Waxing Gibbous, 99% of the Moon is Illuminated
Feb 13
Waxing Gibbous
Feb 14
Full
Feb 22
Last Quarter
Mar 1
New
Mar 8
First Quarter

Hourly Weather History & Observations

Time (MST) Temp. Windchill Dew Point Humidity Pressure Visibility Wind Dir Wind Speed Gust Speed Precip Events Conditions
12:53 AM 39.9 °F - 21.0 °F 47% 29.80 in 10.0 mi North - - N/A   Clear
1:53 AM 39.9 °F 32.9 °F 21.9 °F 49% 29.79 in 10.0 mi East 11.5 mph 20.7 mph N/A   Clear
2:53 AM 37.0 °F 29.8 °F 21.0 °F 52% 29.78 in 10.0 mi East 10.4 mph - N/A   Clear
3:53 AM 35.1 °F 32.2 °F 21.9 °F 59% 29.76 in 10.0 mi Variable 3.5 mph - N/A   Clear
4:53 AM 35.1 °F 27.4 °F 21.0 °F 57% 29.75 in 10.0 mi ENE 10.4 mph - N/A   Unknown
5:53 AM 37.0 °F 32.4 °F 19.9 °F 50% 29.74 in 10.0 mi Variable 5.8 mph - N/A   Clear
6:53 AM 41.0 °F - 21.0 °F 45% 29.74 in 10.0 mi Calm Calm - N/A   Clear
7:53 AM 45.0 °F 38.9 °F 23.0 °F 42% 29.72 in 10.0 mi WNW 12.7 mph 23.0 mph N/A   Clear
8:53 AM 48.0 °F - 23.0 °F 37% 29.69 in 10.0 mi WNW 18.4 mph 29.9 mph N/A   Clear
9:53 AM 48.9 °F - 19.9 °F 32% 29.71 in 10.0 mi WNW 23.0 mph 40.3 mph N/A   Clear
10:53 AM 50.0 °F - 19.0 °F 29% 29.70 in 10.0 mi WNW 16.1 mph - N/A   Clear
11:53 AM 48.9 °F - 19.9 °F 32% 29.70 in 10.0 mi NW 18.4 mph 28.8 mph N/A   Clear
12:53 PM 50.0 °F - 21.0 °F 32% 29.70 in 10.0 mi WNW 15.0 mph 38.0 mph N/A   Clear
1:53 PM 51.1 °F - 26.1 °F 38% 29.70 in 10.0 mi SW 20.7 mph 33.4 mph N/A   Partly Cloudy
2:02 PM 51.1 °F - 26.1 °F 38% 29.76 in 10.0 mi WSW 17.3 mph 21.9 mph N/A   Partly Cloudy
2:53 PM 48.9 °F - 21.9 °F 35% 29.72 in 10.0 mi West 25.3 mph 38.0 mph N/A   Partly Cloudy
3:53 PM 46.9 °F - 21.9 °F 37% 29.75 in 10.0 mi West 20.7 mph 29.9 mph N/A   Clear
4:53 PM 44.1 °F 35.4 °F 21.9 °F 42% 29.77 in 10.0 mi West 21.9 mph 34.5 mph N/A   Clear
5:53 PM 42.1 °F 33.1 °F 23.0 °F 47% 29.79 in 10.0 mi West 20.7 mph 36.8 mph N/A   Clear
6:53 PM 41.0 °F 34.7 °F 21.9 °F 47% 29.81 in 10.0 mi West 10.4 mph - N/A   Partly Cloudy
7:53 PM 37.0 °F 31.6 °F 28.9 °F 73% 29.83 in 10.0 mi NNW 6.9 mph - N/A   Mostly Cloudy
8:53 PM 37.9 °F - 28.0 °F 68% 29.81 in 10.0 mi Calm Calm - N/A   Overcast
9:53 PM 39.0 °F 32.3 °F 17.1 °F 41% 29.84 in 10.0 mi NW 10.4 mph 25.3 mph N/A   Clear
10:53 PM 36.0 °F 29.0 °F 16.0 °F 44% 29.86 in 10.0 mi WNW 9.2 mph - N/A   Clear
11:53 PM 37.0 °F 29.3 °F 12.0 °F 36% 29.88 in 10.0 mi WNW 11.5 mph - N/A   Clear